• Join FlightAware (Why Join?)
  • Login
  • US Flag GB Flag 
05:49 EDT


 

Airport Tracker/Info


-or-


 

Live Flight TrackerFlight Track Log ✈ EJA929 ✈ 12-Apr-2013 ✈ KLAS - KSJC

Flight Track Log - Related Links

Times and Time Zones

All times are in EDT time to prevent confusion due to time zone crossing. See the EJA929 flight status page for this flight to view local times or setup timezone preferences in your user account.

Time Position Orientation Groundspeed Altitude Reporting Facility
EDT Latitude Longitude Course Direction KTS MPH feet Rate Location/Type
02:10 36.0611 -115.1786 219° Southwest 210 242 3,300  Level Los Angeles Center
02:12 35.9906 -115.2500 219° Southwest 263 303 7,000 1,560 Climbing Los Angeles Center
02:13 35.9450 -115.3203 231° Southwest 288 331 6,900  Descending Los Angeles Center
02:13 35.9408 -115.3289 239° Southwest 277 319 7,000 2,520 Climbing Los Angeles Center
02:14 35.8775 -115.3792 213° Southwest 286 329 10,100 1,980 Climbing Los Angeles Center
02:15 35.8339 -115.4575 236° Southwest 313 360 11,000 420 Climbing Los Angeles Center
02:16 35.8503 -115.5872 279° West 373 429 11,000 120 Level Los Angeles Center
02:17 35.8653 -115.7225 278° West 391 450 11,300 1,260 Climbing Los Angeles Center
02:18 35.8814 -115.8539 279° West 388 447 13,600 2,220 Climbing Los Angeles Center
02:19 35.9136 -115.9806 287° West 379 436 15,900 2,280 Climbing Los Angeles Center
02:20 35.9533 -116.0967 293° West 370 426 18,200 2,040 Climbing Los Angeles Center
02:21 35.9919 -116.2192 291° West 379 436 20,100 1,980 Climbing Los Angeles Center
02:22 36.0314 -116.3431 292° West 386 444 22,300 1,980 Climbing Los Angeles Center
02:23 36.0708 -116.4683 291° West 391 450 24,100 1,740 Climbing Los Angeles Center
02:24 36.1114 -116.5981 291° West 400 460 25,900 1,740 Climbing Los Angeles Center
02:25 36.1531 -116.7314 291° West 411 473 27,700 1,920 Climbing Los Angeles Center
02:26 36.1958 -116.8692 291° West 423 487 29,800 1,140 Climbing Los Angeles Center
02:27 36.2400 -117.0106 291° West 433 498 30,000 60 Climbing Los Angeles Center
02:28 36.2978 -117.2003 291° West 475 547 30,000  Level Los Angeles Center
02:29 36.3467 -117.3622 291° West 494 568 30,000  Level Los Angeles Center
02:30 36.3947 -117.5225 290° West 498 573 30,000  Level Los Angeles Center
02:31 36.4433 -117.6817 291° West 498 573 30,000  Level Los Angeles Center
02:32 36.4892 -117.8394 290° West 493 567 30,000  Level Los Angeles Center
02:33 36.5372 -117.9950 291° West 489 563 30,000  Level Los Angeles Center
02:34 36.5844 -118.1511 291° West 486 559 30,000  Level Los Angeles Center
02:35 36.6211 -118.2814 289° West 496 571 30,000  Level Oakland Center
02:36 36.6686 -118.4394 291° West 491 565 30,000  Level Oakland Center
02:37 36.7208 -118.6153 290° West 491 565 30,000  Level Oakland Center
02:38 36.7672 -118.7711 290° West 491 565 30,000  Level Oakland Center
02:39 36.8139 -118.9411 289° West 490 564 30,000  Level Oakland Center
02:40 36.8586 -119.0961 290° West 494 568 30,000  Level Oakland Center
02:41 36.9028 -119.2550 289° West 502 578 30,000  Level Oakland Center
02:42 36.9503 -119.4228 290° West 485 558 30,000  Level Oakland Center
02:43 36.9928 -119.5803 289° West 488 562 30,000 -900 Level Oakland Center
02:44 37.0339 -119.7317 289° West 476 548 28,300 -2,220 Descending Oakland Center
02:45 37.0786 -119.8947 289° West 472 543 25,600 -2,580 Descending Oakland Center
02:46 37.1203 -120.0469 289° West 466 536 23,200 -2,400 Descending Oakland Center
02:47 37.1603 -120.1947 289° West 450 518 20,800 -2,340 Descending Oakland Center
02:48 37.1986 -120.3375 289° West 435 501 18,500 -2,220 Descending Oakland Center
02:49 37.1958 -120.4869 269° West 438 504 16,400 -1,680 Descending Oakland Center
02:50 37.1833 -120.6000 262° West 429 494 15,500 -1,080 Descending Northern Cal TRACON
02:51 37.1667 -120.7333 261° West 396 456 14,500 -1,020 Descending Northern Cal TRACON
02:52 37.1500 -120.8667 261° West 403 464 13,500 -960 Descending Northern Cal TRACON
02:53 37.1333 -121.0167 262° West 401 461 12,600 -540 Descending Northern Cal TRACON
02:54 37.1333 -121.1333 270° West 383 441 12,500 -480 Descending Northern Cal TRACON
02:55 37.1333 -121.2833 270° West 382 440 11,700 -1,140 Descending Northern Cal TRACON
02:56 37.1500 -121.4000 280° West 383 441 10,300 -900 Descending Northern Cal TRACON
02:57 37.1500 -121.5167 270° West 313 360 9,900 -600 Descending Northern Cal TRACON
02:57 37.1564 -121.5553 282° West 372 428 9,600 -2,100 Descending Oakland Center
02:58 37.1597 -121.6369 273° West 300 345 7,300 -2,280 Descending Oakland Center
02:59 37.1753 -121.7239 283° West 273 314 5,100 -1,680 Descending Oakland Center
03:00 37.2181 -121.7797 314° West 246 283 4,000 -1,320 Descending Oakland Center
03:01 37.2608 -121.8219 322° Northwest 220 253 2,500 -1,260 Descending Oakland Center
03:02 37.3003 -121.8631 320° Northwest 199 229 1,500 -960 Descending Oakland Center
03:03 37.3367 -121.9011 320° Northwest 184 212 600 9,240 Descending Oakland Center
03:04 37.3600 -121.9283 317° Northwest 140 161 20,000 19,380 Climbing Oakland Center